Location: Cheching
(60.0667°N, 164.2167°W)
Time: 10:51:02
(UTC+00:00)

FO-99 - Visible Passes

Search period start: 17 January 2021 00:00
Search period end: 27 January 2021 00:00
Orbit: 474 x 506 km, 97.2° (Epoch: 16 January)

Date Brightness Start Highest point End Pass type
(mag) Time Alt. Az. Time Alt. Az. Time Alt. Az.
18 Jan ? 18:42:24 10° ENE 18:44:00 12° E 18:45:35 10° ESE visible
23 Jan ? 05:36:53 11° N 05:36:53 11° N 05:36:58 10° N visible
24 Jan ? 05:13:58 10° NNE 05:13:58 10° NNE 05:14:03 10° NNE visible
25 Jan ? 06:25:31 12° N 06:25:31 12° N 06:25:46 10° N visible
26 Jan ? 06:02:35 13° N 06:02:35 13° N 06:03:02 10° N visible
